Regional Weather Roundup
Issued by NWS Sioux Falls, SD

Home | Current Version | Previous Version | Graphics & Text | Print | Product List | Glossary Off
Versions: 1 2 3 4 5 6 7 8 9 10 11 12 13 14 15 16 17 18 19 20 21 22 23 24 25 26 27 28 29 30 31 32 33 34 35 36 37 38 39 40 41 42 43 44 45 46 47 48 49 50

000
ASUS43 KFSD 190610
RWRFSD

WEATHER ROUNDUP FOR SE SOUTH DAKOTA/SW MINNESOTA/NW IOWA
NATIONAL WEATHER SERVICE SIOUX FALLS SD
100 AM CDT SAT APR 19 2014

NOTE: "FAIR" INDICATES FEW OR NO CLOUDS BELOW 12,000 FEET WITH NO
SIGNIFICANT WEATHER AND OR OBSTRUCTIONS TO VISIBILITY.


SDZ038>040-050-052>070-190700-
SOUTHEAST SOUTH DAKOTA

CITY           SKY/WX    TMP DP  RH WIND       PRES   REMARKS
CHAMBERLAIN      N/A     65  43  44 SW15G30   29.77R
6HR MIN TEMP:  65; 6HR MAX TEMP:  70;

HURON          CLOUDY    59  40  49 S16G22    29.80R
6HR MIN TEMP:  59; 6HR MAX TEMP:  68;

MADISON        FAIR      54  39  58 S24G33    29.87F
MITCHELL       CLOUDY    60  42  51 S28G35    29.80F
6HR MIN TEMP:  59; 6HR MAX TEMP:  68;

SIOUX FALLS    FAIR      55  39  54 S17G26    29.92F
6HR MIN TEMP:  55; 6HR MAX TEMP:  63;

WINNER         FAIR      66  42  41 S28G39    29.73R
YANKTON        FAIR      57  39  51 SE17G25   29.91F
$$

MNZ071-072-080-081-089-090-097-098-190700-
SOUTHWEST MINNESOTA

CITY           SKY/WX    TMP DP  RH WIND       PRES   REMARKS
FAIRMONT       FAIR      48  28  46 SE18      30.11S
JACKSON        FAIR      48  32  53 SE17      30.06F
LUVERNE        FAIR      54  36  50 S15       29.97F
MARSHALL       FAIR      48  34  57 SE17G24   29.96F
6HR MIN TEMP:  48; 6HR MAX TEMP:  61;

MONTEVIDEO     FAIR      46  36  66 S23G33    29.97F
PIPESTONE      FAIR      54  37  54 S22G29    29.93S
REDWOOD FALLS  FAIR      46  33  60 SE18      30.03F
TRACY          FAIR      49  35  58 SE17G23   29.98F
WINDOM         FAIR      48  32  53 SE20      30.03F
WORTHINGTON    FAIR      48  30  49 SE17G25   30.02F
$$

IAZ001>003-012>014-020>022-031-032-NEZ013-014-SDZ071-190700-
NORTHWEST IOWA

CITY           SKY/WX    TMP DP  RH WIND       PRES   REMARKS
CHEROKEE       FAIR      52  37  54 S20       30.04S
DENISON        CLOUDY    52  37  58 S16G23    30.07S
ESTHERVILLE    FAIR      48  33  56 SE20      30.07S
LE MARS        FAIR      55  39  54 SE15G21   30.00R
ORANGE CITY    FAIR      55  37  50 S15G22    30.01S
SHELDON        CLOUDY    52  37  58 S20G26    30.00F
SIOUX CITY     FAIR      56  40  55 S21       30.00F
6HR MIN TEMP:  56; 6HR MAX TEMP:  67;

SPENCER        FAIR      51  35  54 SE16      30.06S
6HR MIN TEMP:  50; 6HR MAX TEMP:  61;

STORM LAKE     FAIR      50  37  62 S18       30.07F
$$

ABBREVIATIONS USED IN REMARKS
   TC - TEMPERATURE IN CELSIUS
  WCI - WIND CHILL INDEX
   HX - HEAT INDEX
  VSB - VISIBILITY




USA.gov is the U.S. government's official web portal to all federal, state and local government web resources and services.